Location: New Frontier Mobile Home Park
(32.8448°N, 116.9675°W)
Time: 22:50:29
(UTC+00:00)

CZ-2D R/B - Pass Details

Date: 14 July 2020
Orbit: 792 x 845 km, 98.7° (Epoch: 05 August)

Event Time Altitude Azimuth Distance (km) Brightness Sun altitude
Rises 10:50:21 0° 348° (NNW) 3,353 5.8 -21.2°
Reaches altitude 10° 10:54:09 10° 320° (NW) 2,428 4.6 -20.6°
Maximum altitude 10:56:18 13° 296° (WNW) 2,257 4.2 -20.3°
Enters shadow 10:57:02 12° 288° (WNW) 2,280 4.2 -20.2°
